FALCON 9 R/B, 59347

Orbit data source: Space-Track

FALCON 9 R/B, 59347 is space debris in HEO originally from a launch on Sat, 30 Mar 2024 UTC launched from the Air Force Eastern Test Range (AFETR). Debris objects in space refer to the collection of defunct objects orbiting the Earth. Examples of debris include non-operational satellites, rocket bodies, and fragments generated from explosions, collisions, or faulty payload assembly.

Loading next visibility...
Identifier
59347, 2024-059B
Orbit
HEO
Country
Flag of USUS
Related business
Manufacturer
SpaceX
Mission
Spacecraft
Bus & Motor
F9ST2, Unknown motor
Mass
~4,000 kg wet, ~4,000 kg dry
Launch date (UTC)
2024-03-30 (2 years ago)
Launch vehicle
Unknown
Launch site
Air Force Eastern Test Range (AFETR)
Object type
Payload
Rocket body
Debris
Shape & HBR
Cyl, 7.8 m
Radar Cross Section
39.980 m², Large (>1 m²)

Expand to show TLE details & history
Last TLE update: 6 days ago

TLE from 6 days ago
0 FALCON 9 R/B
1 59347U 24059B   26089.61778393  .03122451 -10258-4  11501-2 0  9996
2 59347  23.3920 197.5902 6439704  76.3701 343.5728  3.53274578  9813
Epoch: 2026-03-30T14:49Z
TLE epoch observation values (Epoch: 2026-03-30T14:49:36.531Z)
Latitude
0.00009°
Longitude
147.16968°
Altitude
2,882.524 km
Speed
8.012 km/s
True Right ascension
13h 10m 18s
True Declination
0° 00' 00"
Sunlit
Object was in full shadow at epoch
Visualization orbit readout
Latitude
Unknown
Longitude
Unknown
Altitude
Unknown
Speed
Unknown
Apparent Right ascension
Unknown
Apparent Declination
Unknown
Sunlit
N/A
Visualization observer readout
Local Sidereal Time
21:19:04
Azimuth
Unknown
Elevation
Unknown
Doppler factor
Unknown
Orbital elements
Apogee altitude
23,566.533 km
Perigee altitude
106.888 km
Semi-major axis
18,214.847 km
Eccentricity
0.64397
Inclination
23.392°
RAAN
197.5902°
Arg. of periapsis
76.3701°
True anomaly
283.51374°
Mean anomaly
343.5728°
Eccentric anomaly
319.71638°
Mean motion
0.88289 °/min
Orbital period
407.75 mins
BSTAR
0.0011501
Loading maneuver chart data...
Computing Atmospheric mass density...
Loading historical data...
Loading historical data...
Loading historical data...
Loading historical data...
Loading historical data...
Loading historical data...
Loading historical data...
Other satellites on launch #59 in the year 2024 (2024-03-30 UTC)

Documentation

Showing up to 5 results
|